Location: Newark
(41.7772°N, 74.7403°W)
Time: 12:17:36
(UTC+00:00)

Transit 4A - Pass Details

Date: 26 May 2020
Orbit: 866 x 978 km, 66.8° (Epoch: 06 July)

Event Time Altitude Azimuth Distance (km) Brightness Sun altitude
Exits shadow 06:35:42 24° 142° (SE) 1,730 9.1 -22.9°
Maximum altitude 06:37:45 30° 109° (ESE) 1,525 9.1 -22.8°
Drops below altitude 10° 06:42:43 10° 50° (NE) 2,540 11.1 -22.3°
Sets 06:45:30 0° 40° (NE) 3,497 12.3 -22.1°
